Theta_e
326 326 326 326 325 325 325 324 325 324 324 323 323 323 323 323 322 322 322 322 321 321 322 322 322 325 322 315 312 326 347 343 325 318 316 316 315 313 318 326 327 325 327 330 331 331 330
326 326 326 326 325 325 325 324 324 324 323 322 322 321 321 322 323 322 322 321 320 320 321 322 322 324 318 312 322 322 323 320 318 316 315 316 316 317 325 325 322 329 328 328 329 328 328
326 326 326 325 325 325 324 323 322 322 321 321 321 321 320 321 322 322 321 320 319 320 322 322 323 324 320 319 323 318 316 315 318 318 315 319 319 313 324 323 330 328 322 323 326 326 325
326 326 326 325 325 324 323 321 321 321 321 321 321 320 320 321 322 321 320 318 318 322 326 323 324 322 316 328 328 322 318 315 318 317 317 319 319 313 321 327 326 321 323 316 322 327 327
326 326 325 325 325 324 323 322 321 320 320 320 320 320 320 321 320 319 318 318 320 327 323 325 318 317 314 328 317 319 320 317 317 318 318 323 317 309 322 317 314 317 309 314 318 326 324
327 326 323 323 322 323 323 322 322 321 320 320 320 320 320 320 319 317 317 317 325 324 322 324 323 314 321 320 321 320 320 318 313 314 314 313 309 305 310 313 303 307 308 312 314 321 322
327 327 325 322 321 320 320 322 322 321 320 320 320 320 319 319 318 316 315 315 318 315 321 315 316 316 320 320 320 317 318 314 311 307 303 309 301 299 313 315 314 313 311 313 315 326 320
326 325 323 321 320 319 319 320 321 320 320 320 319 319 318 318 317 316 312 309 316 315 307 321 322 321 322 315 309 314 317 309 305 301 306 303 299 307 317 318 316 313 309 312 318 324 319
324 323 322 321 320 320 320 320 320 319 319 319 319 318 318 316 316 315 312 312 319 319 307 312 316 319 319 314 310 310 313 310 304 301 303 301 305 311 312 315 313 311 308 313 314 321 318
322 322 321 320 320 320 320 319 319 319 318 318 318 318 316 314 316 320 318 321 319 318 300 307 310 315 317 313 308 318 315 310 307 303 305 303 309 309 305 304 305 296 314 317 313 310 304
321 321 320 320 320 319 319 318 318 318 317 317 317 316 314 313 315 317 320 324 318 313 292 313 312 320 315 309 310 310 316 311 304 304 302 302 305 303 303 305 306 303 315 312 313 310 306
320 320 320 319 319 318 317 317 317 317 316 316 316 315 314 318 318 321 325 324 313 299 294 309 313 310 309 309 310 312 310 311 311 306 304 303 309 306 305 308 307 311 309 309 307 304 296
320 320 319 318 318 317 317 316 316 315 315 315 314 312 313 318 315 322 323 314 296 294 310 308 307 310 308 306 308 308 305 301 299 295 296 302 303 307 308 300 305 304 296 297 297 296 296
319 319 318 318 317 316 316 316 315 315 314 313 311 310 316 319 322 322 317 304 293 303 302 309 310 310 305 307 306 306 303 299 304 302 298 294 293 304 307 302 301 301 297 298 294 294 297
318 319 318 317 317 316 316 315 315 314 313 312 311 320 319 324 324 324 310 297 296 301 307 306 305 305 304 308 307 304 302 301 303 303 296 296 300 308 308 308 305 304 299 306 300 300 299
317 318 317 317 317 316 316 315 314 314 313 312 311 316 320 326 327 316 305 298 302 306 306 306 299 303 301 305 304 302 302 306 305 308 305 302 299 304 308 309 309 305 305 297 298 293 293
316 317 317 317 316 316 316 316 315 313 312 312 314 316 324 326 321 310 300 302 306 310 310 305 302 301 303 304 306 304 304 308 309 309 307 303 300 304 305 302 301 300 297 299 298 300 294
316 316 316 316 315 316 316 316 314 312 311 315 316 310 322 323 308 308 303 306 305 309 312 309 308 304 304 304 304 305 306 308 313 310 303 305 299 299 303 309 308 304 300 299 295 295 299
315 316 316 315 315 316 316 316 314 312 311 312 310 315 326 319 304 306 309 309 310 309 309 308 306 306 306 303 300 307 309 314 315 308 304 304 296 291 296 305 304 301 303 302 300 300 300
315 315 314 315 315 316 316 316 314 312 312 313 312 310 316 316 315 309 307 307 307 313 310 310 308 307 305 302 304 304 307 312 314 313 324 313 299 297 292 303 307 304 308 306 300 296 298
314 315 314 314 316 316 317 316 315 313 313 313 315 312 314 307 309 311 311 310 309 308 312 311 307 305 303 299 302 302 307 308 312 318 311 305 298 303 305 309 310 308 308 308 300 301 299
315 314 315 316 317 317 317 317 316 315 313 314 311 310 312 309 311 308 307 308 309 309 310 308 308 307 306 300 303 303 305 307 308 310 307 308 299 305 302 309 308 307 309 309 304 303 301
314 314 316 317 317 318 318 317 317 316 314 313 314 316 311 307 308 306 306 306 308 312 312 313 312 310 307 308 311 311 310 310 307 305 305 305 302 301 295 307 307 300 307 307 307 305 303
314 314 316 317 319 319 318 318 318 317 316 315 314 313 307 302 306 306 308 309 308 311 309 312 313 310 314 316 314 312 310 308 310 306 307 304 304 303 299 302 293 306 313 312 309 308 308
314 315 316 317 318 318 319 319 318 318 317 316 317 312 308 302 305 305 307 308 310 311 311 311 314 315 316 312 305 303 303 303 307 309 307 308 305 301 297 297 301 308 311 311 305 304 309
314 315 316 317 318 318 318 318 318 318 317 317 318 318 311 301 301 306 305 308 305 306 308 311 315 318 315 307 303 298 296 302 300 307 309 308 309 303 300 296 294 306 312 315 312 300 312
314 316 317 316 316 317 318 318 319 319 317 316 318 318 310 302 306 307 304 304 309 307 306 308 311 311 313 304 300 298 298 306 298 299 302 303 301 299 301 298 303 313 314 314 300 303 314
314 315 316 315 315 316 316 316 317 318 318 316 318 318 312 306 306 308 308 306 307 308 305 309 308 310 308 303 301 301 300 302 302 303 303 303 299 299 300 298 296 316 313 305 310 311 315
314 315 315 315 315 315 315 315 316 317 317 317 311 318 317 307 305 311 311 312 311 311 308 309 309 309 311 306 307 306 302 304 301 297 307 300 304 301 304 303 312 317 313 319 319 314 312
Wind_Speed
13 14 14 14 14 15 15 16 16 16 17 18 17 17 17 17 18 18 17 16 15 14 11 9 8 6 5 4 10 6 8 7 6 3 6 12 14 10 7 10 7 6 9 12 5 7 8
13 13 14 14 14 14 15 16 16 17 19 20 19 19 20 19 18 18 18 17 15 13 10 7 6 3 3 6 7 12 9 8 8 8 9 13 11 8 9 10 8 2 11 14 8 5 5
13 13 14 14 14 14 15 18 20 20 20 21 21 21 21 22 19 19 19 18 16 12 8 5 5 4 5 14 8 11 11 10 8 10 12 14 11 6 5 13 5 16 13 8 5 7 4
13 13 14 14 14 14 14 20 20 21 21 21 21 22 22 23 21 20 19 19 15 10 6 5 5 5 9 7 11 13 11 10 11 10 10 10 9 7 7 7 5 7 6 4 8 7 5
12 13 14 14 15 15 14 18 20 20 22 22 22 22 23 21 21 20 19 20 13 6 2 8 4 4 9 2 6 8 8 9 10 9 7 12 7 4 3 6 4 4 3 4 7 13 9
11 12 17 18 18 16 16 16 16 16 16 20 21 20 21 21 20 19 23 11 4 6 4 7 8 5 6 14 6 7 8 7 7 7 8 9 5 4 4 5 4 4 4 6 6 6 8
11 12 13 17 19 20 19 16 16 17 18 19 20 21 21 22 21 16 13 0 0 1 6 10 9 8 13 4 7 7 7 7 5 5 7 10 3 8 10 12 8 12 5 8 4 11 5
12 11 15 18 17 19 18 17 17 18 18 19 21 22 23 25 24 19 3 4 9 7 7 18 22 19 20 9 5 7 9 6 6 7 9 7 9 14 12 17 20 13 8 8 9 17 6
13 14 14 14 14 15 16 16 16 17 19 20 21 21 24 28 30 2 6 10 14 13 6 16 19 18 16 8 8 10 10 10 8 9 10 10 14 16 11 16 12 16 9 8 9 17 9
13 13 13 14 15 16 16 16 17 18 19 20 21 21 22 31 5 8 7 11 10 6 4 9 7 10 12 6 9 11 11 9 6 11 12 10 16 13 4 5 6 5 4 13 10 10 6
12 13 13 14 15 16 17 17 18 18 19 20 22 21 23 10 9 6 9 17 10 5 5 8 10 6 10 10 8 9 13 9 11 7 6 12 10 6 8 6 9 9 7 5 3 9 3
12 13 14 15 15 16 17 18 19 19 20 21 20 22 22 4 5 11 16 16 6 2 8 6 9 11 12 10 11 11 8 7 8 9 8 10 11 7 10 9 10 9 4 2 5 1 1
13 14 14 15 15 16 17 18 19 21 21 22 23 25 10 6 6 8 13 5 0 5 8 10 16 14 12 9 12 13 9 7 6 3 7 11 11 6 4 6 7 2 5 4 7 8 5
13 13 14 15 15 17 18 19 20 22 23 23 25 30 7 9 9 10 3 2 6 10 13 9 6 16 13 12 13 11 9 7 11 10 8 7 9 9 8 9 9 8 8 7 7 6 5
14 13 14 15 16 17 18 19 20 22 24 23 27 4 6 7 12 7 1 5 7 6 8 13 23 9 10 11 12 8 11 12 11 13 9 4 9 9 9 8 4 6 3 10 5 1 2
14 14 15 15 16 17 18 19 20 22 25 23 7 5 7 7 13 4 2 6 7 11 16 16 13 7 14 14 12 11 14 16 16 16 10 11 3 5 10 7 9 7 2 4 4 2 3
14 15 15 16 17 18 18 19 19 22 26 29 3 5 3 11 9 2 5 6 8 15 15 7 11 18 16 6 6 8 15 12 21 17 12 10 4 3 5 6 8 2 4 4 3 5 7
15 14 15 16 17 17 18 18 16 19 25 9 5 4 5 6 3 4 9 7 6 16 19 18 17 13 9 10 13 8 11 11 10 14 10 10 5 4 10 9 11 10 8 8 6 5 4
14 14 15 17 16 17 18 17 14 14 14 6 6 6 6 5 4 8 13 19 20 19 19 13 15 11 11 9 8 6 13 13 15 11 10 6 3 1 7 6 3 7 9 7 1 4 4
14 15 16 16 16 16 16 16 13 12 10 5 5 5 3 5 6 9 12 13 17 15 18 16 13 8 6 9 12 7 10 9 13 12 6 6 5 8 7 4 3 6 10 12 1 5 3
14 15 16 17 16 16 16 14 13 13 12 3 4 3 8 6 9 15 13 14 15 17 16 11 4 5 8 8 13 8 7 9 10 12 6 5 3 1 7 9 11 2 14 18 8 8 6
14 15 15 15 16 16 14 14 13 14 18 3 4 5 9 12 12 13 10 12 15 16 14 15 9 11 11 8 8 9 5 2 3 8 5 8 3 1 2 11 9 7 23 16 2 3 4
15 15 16 16 17 15 13 13 13 13 11 4 6 6 5 7 11 10 7 14 18 13 12 16 15 18 3 4 10 10 6 2 5 2 4 4 2 2 5 6 6 5 7 6 15 3 3
14 15 15 17 18 13 12 11 11 10 7 5 5 5 4 7 9 12 17 13 15 18 9 16 13 10 10 11 7 8 7 7 3 4 3 2 5 2 4 5 3 9 11 9 10 4 6
14 15 15 16 15 14 12 11 11 10 6 4 4 3 4 7 10 14 18 16 14 15 12 14 13 9 13 9 4 5 3 5 4 5 8 4 4 4 1 4 5 7 12 13 9 3 4
15 12 13 12 13 13 14 12 11 10 8 4 4 1 1 3 5 13 15 12 6 10 9 10 15 14 8 4 3 3 3 0 4 3 12 5 8 6 3 3 5 7 3 2 6 2 5
15 14 10 11 12 13 13 13 13 13 10 3 3 2 0 3 9 8 6 9 9 10 7 4 12 8 10 2 4 4 6 4 5 5 5 4 2 6 8 3 8 7 9 7 7 6 3
12 12 11 11 11 12 14 14 15 14 14 2 4 1 2 3 9 14 15 13 10 8 5 9 8 5 3 4 4 5 3 5 4 4 6 7 6 5 3 4 7 7 7 8 7 2 8
12 11 9 9 11 12 12 13 13 12 11 4 3 1 1 4 6 16 20 19 18 18 10 6 6 5 3 4 6 4 3 4 5 6 6 5 6 6 9 9 9 1 18 6 8 7 6
Wind_Direction
13 12 10 9 5 3 1 2 355 354 353 352 347 343 340 336 332 327 323 319 313 308 303 299 299 309 289 229 250 148 158 168 182 184 238 256 277 287 62 85 4 157 131 102 124 150 99
6 5 4 2 1 359 357 354 352 352 353 351 347 345 343 340 332 328 325 321 314 306 298 288 278 300 241 256 130 154 179 170 227 188 242 254 263 311 98 47 56 324 108 118 109 116 142
1 1 360 358 357 357 357 359 357 354 354 350 346 342 340 337 331 328 325 320 316 305 290 268 241 242 255 246 140 169 191 203 205 229 240 263 305 24 95 116 253 19 97 90 121 140 113
357 357 356 354 353 352 354 358 355 352 350 348 345 341 337 331 328 327 322 319 312 301 275 208 209 250 253 254 238 184 192 211 218 234 255 293 305 2 95 156 67 94 314 10 181 184 164
355 356 355 353 351 347 343 349 352 350 345 344 342 338 329 325 326 324 319 314 297 297 131 159 189 231 266 246 203 241 196 215 220 242 266 270 290 228 149 85 32 274 176 143 211 211 163
345 348 356 353 351 346 341 335 331 337 341 341 336 325 323 322 323 323 319 288 273 305 213 199 259 292 253 242 200 200 219 224 218 221 252 249 267 254 354 128 264 205 142 155 230 237 174
340 341 346 347 346 344 342 334 332 325 329 329 329 326 323 320 320 323 337 288 68 179 244 214 185 227 270 177 109 199 184 225 254 199 237 250 234 236 177 153 229 231 151 166 259 197 122
340 339 342 342 342 340 337 331 329 328 327 328 327 325 323 320 316 319 252 254 260 312 289 225 243 262 251 139 149 214 172 194 215 209 233 277 227 243 189 172 198 192 179 190 232 164 110
344 342 340 346 339 333 331 331 330 328 327 327 326 325 325 323 315 258 225 245 278 300 287 284 244 219 238 149 217 188 157 224 189 221 222 226 247 241 195 188 196 217 199 165 198 171 79
339 339 340 336 334 334 335 334 332 330 329 327 327 328 332 331 340 335 282 273 243 314 296 260 184 222 205 184 237 184 172 204 217 212 233 231 254 261 218 319 298 311 137 161 184 162 199
340 338 337 338 339 338 336 333 331 329 328 326 326 330 333 322 306 297 301 322 329 350 296 155 156 157 156 170 211 200 170 232 247 230 199 252 256 288 297 228 249 253 169 255 244 193 200
341 341 342 342 341 339 337 334 331 329 327 323 322 325 331 321 230 249 288 286 310 302 247 184 144 152 155 211 256 155 155 220 266 274 260 253 274 229 223 252 247 249 172 211 299 306 357
343 343 345 344 341 338 337 336 333 330 327 323 318 311 301 279 241 348 328 328 1 228 303 172 162 173 187 185 237 156 170 200 233 230 267 263 257 236 250 248 243 57 3 12 19 7 232
345 344 344 342 341 339 337 336 334 331 328 325 319 310 238 208 229 261 277 331 238 242 240 303 173 185 193 189 212 171 174 206 227 248 276 206 256 210 203 210 199 192 176 152 177 206 249
343 344 344 341 337 336 334 335 334 332 328 327 315 290 258 225 212 244 210 220 212 225 276 338 336 224 197 195 221 156 177 200 225 221 219 254 275 169 186 224 194 226 171 206 153 321 82
344 344 342 340 339 337 334 332 334 335 329 327 314 286 259 225 171 175 208 246 250 258 302 322 315 302 308 193 213 179 190 204 217 222 207 254 295 193 192 186 263 192 232 38 318 232 127
346 344 341 338 339 338 335 333 335 338 333 322 249 276 168 133 151 154 224 241 272 275 285 277 283 287 306 337 276 234 211 215 206 221 211 234 165 179 199 182 205 283 265 262 170 149 146
344 342 337 344 338 336 334 335 341 343 338 351 306 275 164 153 187 213 229 245 246 271 285 288 294 296 282 305 308 316 304 248 228 194 213 212 206 195 211 236 184 212 229 183 129 289 82
343 342 340 338 334 333 333 335 340 345 4 322 305 281 256 187 247 248 252 256 248 250 261 266 270 282 300 298 307 323 312 297 320 168 192 223 225 333 313 352 234 189 252 250 293 83 130
343 339 340 335 334 334 334 335 333 341 347 331 286 292 330 216 244 265 284 287 294 287 241 245 267 269 311 311 288 279 301 311 346 322 127 108 164 160 195 180 177 339 329 325 313 81 198
334 334 337 340 332 330 332 333 334 336 332 300 250 335 344 310 334 329 318 318 312 298 300 283 234 248 261 275 288 274 280 301 303 284 224 116 174 302 127 177 171 114 324 307 243 178 144
334 331 332 330 331 330 331 335 338 337 329 237 310 339 346 298 299 314 307 309 320 332 345 320 323 228 248 245 241 253 269 4 55 317 46 334 214 206 308 114 150 155 241 277 10 358 14
333 336 335 333 326 325 330 333 338 350 340 313 4 339 300 293 302 299 322 326 314 322 313 323 338 326 327 347 4 319 321 357 119 354 331 17 328 148 254 159 81 5 268 323 304 200 234
330 332 333 334 333 325 325 333 342 352 10 324 321 317 279 290 307 303 330 326 339 314 340 313 313 333 3 350 4 333 320 277 281 207 251 294 15 193 220 117 123 229 286 268 284 67 74
329 331 333 335 340 353 349 344 344 344 343 307 304 321 325 296 325 314 355 335 321 320 294 293 315 330 326 341 353 313 306 312 294 277 267 180 93 342 156 235 237 212 224 218 224 167 94
328 330 327 341 344 349 349 350 345 346 345 302 283 182 270 323 226 3 315 308 359 344 317 310 345 320 329 326 328 256 261 321 227 243 198 110 148 124 62 32 269 186 77 246 167 217 124
332 336 334 347 349 348 349 356 352 351 346 303 291 119 107 255 280 324 302 331 323 327 310 338 344 321 324 350 295 279 265 290 252 269 231 124 68 167 243 173 283 277 158 131 115 204 308
339 341 350 350 352 351 350 350 351 348 349 313 307 330 283 256 286 265 290 295 300 300 302 332 317 10 301 291 242 265 284 272 274 264 253 173 146 155 161 169 259 305 172 137 206 97 86
337 336 342 346 345 344 344 343 343 339 335 308 273 78 61 231 275 304 280 265 258 259 282 296 298 300 244 331 355 327 290 315 290 277 296 269 166 195 173 199 215 78 298 191 142 128 97